FW2569 Weather Reports


Display with metric or nautical units.
time (UTC)temp
F
wind
direction
speed
MPH
gust
MPH
rain 1hr
in
rain 24hr
in
rain mn
in
humidity
%
barometer
mb
20260510090107 0 0.0 0.0 0.00 0.00 0.00 1009.6
20260510084613 0 0.0 0.0 0.00 0.00 0.00 1009.5
20260510083041 0 0.0 0.0 0.00 0.00 0.00 1009.5
20260510080033 0 0.0 0.0 0.00 0.00 0.00 1009.9
20260510074534 0 0.0 0.0 0.00 0.00 0.00 1009.9
20260510073026 0 0.0 0.0 0.00 0.00 0.00 1009.8
20260510071541 0 0.0 0.0 0.00 0.00 0.00 1009.9
20260510070044 0 0.0 0.0 0.00 0.00 0.00 1010.0
20260510064520 0 0.0 0.0 0.00 0.00 0.00 1010.0
20260510063031 0 0.0 0.0 0.00 0.00 0.00 1010.1
20260510060006 0 0.0 0.0 0.00 0.00 0.00 1010.1
20260510053003 0 0.0 0.0 0.00 0.00 0.00 1010.1
20260510051531 0 0.0 0.0 0.00 0.00 0.00 1010.2
20260510044523 0 0.0 0.0 0.00 0.00 0.00 1010.2
20260510043003 0 0.0 0.0 0.00 0.00 0.00 1010.3
20260510041511 0 0.0 0.0 0.00 0.00 0.00 1010.0
20260510040014 0 0.0 0.0 0.00 0.00 0.00 1009.9
20260510033005 0 0.0 0.0 0.00 0.00 0.00 1009.5
20260510030058 0 0.0 0.0 0.00 0.00 0.00 1009.0
20260510024511 73 239 0.0 0.0 0.00 0.00 0.00 86 1008.9
20260510023050 73 202 0.0 0.0 0.00 0.00 0.00 86 1008.7
20260510021525 74 201 0.0 0.0 0.00 0.00 0.00 83 1008.5
20260510020103 75 201 0.0 0.0 0.00 0.00 0.00 83 1008.4
20260510014525 75 203 0.0 0.0 0.00 0.00 0.00 81 1008.1
20260510013107 76 203 0.0 0.0 0.00 0.00 0.00 81 1007.9
20260510011539 78 203 0.0 0.0 0.00 0.00 0.00 79 1007.6
20260510010114 81 203 0.0 0.0 0.00 0.00 0.00 75 1007.5
20260510004538 83 203 0.0 2.0 0.00 0.00 0.00 71 1007.4
20260510003011 85 203 1.0 5.0 0.00 0.00 0.00 68 1007.2
20260510001550 86 178 4.0 7.0 0.00 0.00 0.00 63 1007.3
20260510000005 91 192 7.0 13.0 0.00 0.00 0.00 58 1007.2
20260509234559 98 154 0.0 2.0 0.00 0.00 0.00 57 1007.0
20260509233019 96 74 0.0 1.0 0.00 0.00 0.00 60 1007.0
20260509231558 93 124 0.0 0.0 0.00 0.00 0.00 66 1007.0
20260509230019 88 18 0.0 0.0 0.00 0.00 0.00 71 1007.0
20260509224552 88 23 0.0 1.0 0.00 0.00 0.00 71 1006.8
20260509223031 86 29 0.0 1.0 0.00 0.00 0.00 77 1006.7
20260509221524 85 21 0.0 1.0 0.00 0.00 0.00 77 1006.5
20260509220058 86 11 0.0 0.0 0.00 0.00 0.00 76 1006.5
20260509214504 86 335 0.0 0.0 0.00 0.00 0.00 74 1006.7
20260509213037 87 328 0.0 0.0 0.00 0.00 0.00 74 1006.9
20260509211529 88 231 0.0 1.0 0.00 0.00 0.00 68 1007.0
20260509210014 89 340 0.0 1.0 0.00 0.00 0.00 71 1007.1
20260509204505 89 307 0.0 0.0 0.00 0.00 0.00 68 1007.1
20260509203053 89 11 0.0 1.0 0.00 0.00 0.00 69 1007.4
20260509201535 88 56 0.0 1.0 0.00 0.00 0.00 70 1007.7
20260509200109 87 260 0.0 1.0 0.00 0.00 0.00 72 1007.8
20260509194533 87 298 0.0 2.0 0.00 0.00 0.00 71 1007.9
20260509193023 89 20 0.0 2.0 0.00 0.00 0.00 71 1008.2
20260509191613 0 0.0 0.0 0.00 0.00 0.00 1008.4
20260509191500 0 0.0 0.0 0.00 0.00 0.00 1008.4
20260509190139 0 0.0 0.0 0.00 0.00 0.00 1008.6
20260509184540 0 0.0 0.0 0.00 0.00 0.00 1008.7
20260509181530 0 0.0 0.0 0.00 0.00 0.00 1009.1
20260509180150 0 0.0 0.0 0.00 0.00 0.00 1009.4
20260509174523 0 0.0 0.0 0.00 0.00 0.00 1009.7
20260509173051 0 0.0 0.0 0.00 0.00 0.00 1010.0
20260509170118 80 273 0.0 0.0 0.00 0.00 0.00 89 1010.0
20260509164545 79 250 0.0 0.0 0.00 0.00 0.00 89 1010.0
20260509163011 78 250 0.0 0.0 0.00 0.00 0.00 90 1009.9
20260509161548 79 223 0.0 0.0 0.00 0.00 0.00 89 1010.0
20260509160005 79 214 0.0 0.0 0.00 0.00 0.00 90 1009.9
20260509154544 78 214 0.0 0.0 0.00 0.00 0.00 92 1010.0
20260509153018 77 214 0.0 1.0 0.00 0.00 0.00 92 1010.1
20260509151605 76 195 2.0 4.0 0.00 0.00 0.00 92 1009.9
20260509150036 76 174 6.0 13.0 0.00 0.00 0.00 92 1008.9
20260509144551 76 206 10.0 15.0 0.00 0.00 0.00 92 1008.8
20260509143030 76 200 7.0 11.0 0.00 0.00 0.00 92 1008.9
20260509141533 0 0.0 0.0 0.00 0.00 0.00 1009.3
20260509140155 0 0.0 0.0 0.00 0.00 0.00 1009.3
20260509134518 0 0.0 0.0 0.00 0.00 0.00 1009.4
20260509131509 0 0.0 0.0 0.00 0.00 0.00 1009.4
20260509130006 0 0.0 0.0 0.00 0.00 0.00 1009.2
20260509124642 0 0.0 0.0 0.00 0.00 0.00 1009.1
20260509123004 0 0.0 0.0 0.00 0.00 0.00 1009.4
20260509120058 0 0.0 0.0 0.00 0.00 0.00 1009.4
20260509114605 0 0.0 0.0 0.00 0.00 0.00 1009.0
20260509113128 0 0.0 0.0 0.00 0.00 0.00 1009.3
20260509111544 0 0.0 0.0 0.00 0.00 0.00 1009.8
20260509104550 0 0.0 0.0 0.00 0.00 0.00 1009.7
20260509103047 0 0.0 0.0 0.00 0.00 0.00 1009.8
20260509101625 0 0.0 0.0 0.00 0.00 0.00 1009.5
20260509100044 0 0.0 0.0 0.00 0.00 0.00 1009.2
20260509094548 0 0.0 0.0 0.00 0.00 0.00 1009.2
20260509093021 0 0.0 0.0 0.00 0.00 0.00 1009.0
20260509091541 0 0.0 0.0 0.00 0.00 0.00 1008.8